Tracking 31027 objects as of 19-Jul-2025
HD Live streaming from Space Station
objects crossing your sky now

COSMOS 1174

Track COSMOS 1174 now!
10-day predictions
COSMOS 1174 is classified as:


NORAD ID: 11765
Int'l Code: 1980-030A
Perigee: 366.2 km
Apogee: 1,068.7 km
Inclination: 66.1 °
Period: 99.0 minutes
Semi major axis: 7088 km
RCS: 4.5129 m2 (large)
Launch date: April 18, 1980
Source: Commonwealth of Independent States (former USSR) (CIS)
Launch site: TYURATAM MISSILE AND SPACE COMPLEX (TTMTR)
Your satellite tracking list
MAROC TUBSAT
Track 1 satellite(s)




NASA's NSSDC Master Catalog

Two Line Element Set (TLE):
1 11765U 80030A   25199.90290209  .00002723  00000-0  12060-3 0  9994
2 11765  66.0815  82.1367 0495524 312.4903  43.5310 14.54695224330392
Source of the keplerian elements: AFSPC